Location: *
(46.3500°N, 10.9000°E)
Time: 21:26:00
(UTC+00:00)

Explorer 7 - Pass Details

Date: 23 April 2021
Orbit: 484 x 677 km, 50.3° (Epoch: 05 May)

Event Time Altitude Azimuth Distance (km) Brightness Sun altitude
Rises 17:27:25 0° 214° (SW) 2,571 10.6 7.0°
Reaches altitude 10° 17:29:42 10° 204° (SSW) 1,713 9.5 6.7°
Maximum altitude 17:33:08 31° 141° (SE) 938 7.7 6.1°
Drops below altitude 10° 17:36:45 10° 79° (E) 1,807 8.9 5.5°
Sets 17:39:14 0° 69° (ENE) 2,740 9.9 5.1°
